This is the latest recevied weather packets stored in our database for station/object M0SDM-10. If no packets are shown the sender has not sent any weather packets the latest 10 day(s).
| Time | Temp. | Humidity | Pressure | Rain* | Wind** | Luminosity | Snow |
|---|---|---|---|---|---|---|---|
| 1788223939 | 17.22° C | 66% | 1007.5 hPa | - | - | - | - |
| 1788222139 | 17.22° C | 67% | 1007.3 hPa | - | - | - | - |
| 1788220339 | 17.22° C | 67% | 1007.3 hPa | - | - | - | - |
| 1788218539 | 17.22° C | 66% | 1007.1 hPa | - | - | - | - |
| 1788216739 | 17.22° C | 66% | 1007.2 hPa | - | - | - | - |
| 1788214939 | 17.78° C | 66% | 1007.1 hPa | - | - | - | - |
| 1788213139 | 17.78° C | 66% | 1007 hPa | - | - | - | - |
| 1788211338 | 17.78° C | 65% | 1006.9 hPa | - | - | - | - |
| 1788209538 | 17.78° C | 65% | 1006.7 hPa | - | - | - | - |
| 1788207738 | 18.33° C | 66% | 1006.4 hPa | - | - | - | - |
| 1788205938 | 18.33° C | 64% | 1006 hPa | - | - | - | - |
| 1788204138 | 18.33° C | 63% | 1005.7 hPa | - | - | - | - |
| 1788202338 | 18.89° C | 64% | 1005.2 hPa | - | - | - | - |
| 1788200823 | 18.89° C | 64% | 1004.9 hPa | - | - | - | - |
| 1788200538 | 18.89° C | 64% | 1004.9 hPa | - | - | - | - |
| 1788198738 | 18.89° C | 64% | 1004.4 hPa | - | - | - | - |
| 1788196941 | 19.44° C | 64% | 1004 hPa | - | - | - | - |
| 1788195137 | 19.44° C | 64% | 1003.4 hPa | - | - | - | - |
| 1788193337 | 19.44° C | 65% | 1003 hPa | - | - | - | - |
| 1788191537 | 18.89° C | 65% | 1002.6 hPa | - | - | - | - |
| 1788189737 | 18.89° C | 67% | 1002.2 hPa | - | - | - | - |
| 1788187937 | 18.89° C | 68% | 1001.9 hPa | - | - | - | - |
| 1788186137 | 18.89° C | 70% | 1001.6 hPa | - | - | - | - |
| 1788184336 | 18.89° C | 70% | 1001.4 hPa | - | - | - | - |
| 1788182536 | 18.33° C | 70% | 1000.8 hPa | - | - | - | - |
* Rain since midnight (hover to see other rain measurements)
** Current wind speed in m/s (hover to see current wind gust speed)